Skip Page Navigation
NASA JPL Caltech
NASA Logo - Jet Propulsion Laboratory + View the NASA Portal
+ Near-Earth Object (NEO) Program
Search JPL
JPL Home Earth Solar System Stars & Galaxies Technology
JPL Solar System Dynamics
BODIES ORBITS EPHEMERIDES TOOLS PHYSICAL DATA DISCOVERY FAQ SITE MAP
JPL Small-Body Database Browser
Search: [ help ]  
11533 Akeback (1992 EG6)
Classification: Main-belt Asteroid          SPK-ID: 2011533
Ephemeris | Orbit Diagram | Orbital Elements | Physical Parameters | Discovery Circumstances | Close-Approach Data ]

[ show orbit diagram ]
Orbital Elements at Epoch 2456800.5 (2014-May-23.0) TDB
Reference: JPL 6 (heliocentric ecliptic J2000)
 Element Value Uncertainty (1-sigma)   Units 
e .09984403298779097 6.5277e-08  
a 3.003845717031184 3.0173e-08 AU
q 2.703929646169688 2.0204e-07 AU
i 9.741654599297833 7.3391e-06 deg
node 131.5291759629756 3.6754e-05 deg
peri 133.5314643980184 5.2427e-05 deg
M .8882704326098403 3.612e-05 deg
tp 2456795.808004721174
(2014-May-18.30800472)
0.0001908 JED
period 1901.581138319066
5.21
2.8651e-05
7.844e-08
d
yr
n .1893161394723487 2.8525e-09 deg/d
Q 3.303761787892681 3.3186e-08 AU
  Orbit Determination Parameters
   # obs. used (total)      966  
   data-arc span      8160 days (22.34 yr)  
   first obs. used      1992-03-01  
   last obs. used      2014-07-04  
   planetary ephem.      DE431  
   SB-pert. ephem.      SB431-BIG16  
   condition code      0  
   fit RMS      .56995  
   data source      ORB  
   producer      Otto Matic  
   solution date      2014-Jul-14 12:26:29  

Additional Information
 Earth MOID = 1.69851 AU 
 T_jup = 3.222 
[ show covariance matrix ]

Ephemeris | Orbit Diagram | Orbital Elements | Physical Parameters | Discovery Circumstances | Close-Approach Data ]

Physical Parameter Table
Parameter Symbol Value Units Sigma Reference Notes
absolute magnitude H 13.0 mag n/a PDS3 (MPC 35841)  

11533 Akebäck           Discovered 1992 Mar. 1 at the European Southern Observatory in the course of the Uppsala-ESO Survey of Asteroids and Comets.
Akebäck is a small parish centrally situated on Gotland. A village resident named Botair is said to have built the first real church on Gotland.
NOTE: some special characters may not display properly (any characters within {} are an attempt to place the proper accent above a character)
Reference: 20120831/MPCPages.arcLast Updated: 2012-09-04

[ show close-approach data ]
Alternate Designations
 1992 EG6 = 1998 KW8 
Ephemeris | Orbit Diagram | Orbital Elements | Physical Parameters | Discovery Circumstances | Close-Approach Data ]
ABOUT SSD CREDITS/AWARDS PRIVACY/COPYRIGHT GLOSSARY LINKS
FirstGov 2014-Jul-24 20:05 UT
(server date/time)  
NASA Home Page
Site Manager:   Donald K. Yeomans
Webmaster  Alan B. Chamberlin